Dewpoint
9 10 11 13 14 13 13 13 15 15 14 13 13 13 13 13 13 13 13 13 13 13 13 13 13 13 14 14 15 15 15 15 15 16 17 17 17 17 18 19 19 20 20 21 21 22 23 23 24 24 25 25 26 26 26 26 26 28 29 30 32 33 34 35 35 34 34 34 34
9 10 11 14 14 13 13 13 14 14 14 13 13 13 13 13 12 12 12 12 12 12 13 12 13 13 13 14 15 15 14 14 15 16 16 16 16 17 17 18 19 20 20 20 21 22 23 23 24 24 24 25 25 25 26 26 27 28 30 31 33 34 35 35 34 34 33 33 34
9 10 10 11 11 11 12 12 12 13 13 13 13 13 13 12 12 12 12 12 12 12 12 12 12 13 14 14 14 14 14 15 16 16 16 16 17 17 18 18 19 19 20 20 20 21 22 23 23 24 24 24 25 25 26 27 29 30 31 32 33 34 34 33 33 32 33 33 34
9 9 10 10 11 11 11 11 12 12 12 13 12 12 12 12 11 11 11 12 11 11 12 12 11 12 13 14 14 14 15 16 17 17 17 17 17 18 18 18 19 19 19 19 20 20 21 22 23 23 23 24 25 25 27 28 29 30 31 32 32 32 32 31 31 32 33 34 35
9 10 10 10 11 11 11 11 12 12 12 12 12 12 11 11 11 11 11 11 11 11 12 12 12 12 13 14 14 14 15 16 18 18 16 17 17 18 18 19 19 19 19 19 20 20 20 21 22 23 23 24 25 26 27 28 29 30 30 30 30 29 30 30 31 32 33 35 36
9 9 10 10 11 11 11 12 12 12 12 12 12 11 11 11 11 11 11 11 11 12 12 14 14 14 14 13 14 14 15 15 16 16 16 16 17 17 18 18 18 18 19 19 19 20 20 20 21 22 23 24 26 27 28 28 29 29 29 29 29 29 29 30 31 32 34 35 35
10 10 10 10 11 11 11 12 12 12 12 12 11 11 11 11 11 11 11 11 12 12 13 15 14 13 13 13 13 14 15 16 16 16 16 17 17 17 17 18 18 18 19 19 19 19 20 20 21 22 23 24 24 25 27 28 28 28 29 29 29 29 29 30 31 33 34 35 35
10 10 10 11 11 11 11 12 12 12 12 12 11 11 11 11 11 12 12 12 12 12 13 13 12 12 12 13 14 14 15 16 16 16 17 17 17 17 17 17 18 18 18 18 19 19 19 20 21 21 22 23 24 25 25 27 28 28 28 29 29 29 30 31 32 33 34 34 34
10 10 11 11 11 12 12 12 12 12 12 12 11 11 12 13 12 12 12 12 13 13 13 12 12 12 13 14 14 15 16 16 16 17 17 17 17 17 17 18 18 18 18 19 19 19 20 20 21 21 21 22 23 24 25 26 28 28 28 28 29 29 29 30 31 32 34 34 34
9 10 10 11 12 12 13 13 13 13 13 12 12 12 13 16 14 13 12 13 14 13 13 12 13 13 13 14 15 16 16 17 17 17 17 18 18 18 18 18 19 19 19 19 19 20 20 20 20 20 21 22 22 23 24 25 26 27 28 28 28 28 28 29 30 32 33 34 34
10 10 10 11 12 13 13 13 13 13 12 12 12 12 13 14 13 13 13 14 13 13 13 13 13 14 14 14 15 16 16 17 17 18 18 18 19 19 19 19 19 19 19 19 20 20 20 20 21 21 22 22 23 24 24 25 25 26 27 27 28 28 28 28 29 31 33 33 33
10 10 11 11 12 12 13 13 12 12 12 12 11 11 12 12 12 13 14 14 13 13 13 14 15 15 15 15 16 16 16 17 17 18 18 18 19 19 19 20 20 20 20 20 20 20 21 21 22 22 23 23 23 24 25 26 26 27 27 27 27 28 28 29 30 31 32 33 33
11 11 11 11 12 12 12 12 12 12 11 11 11 12 12 12 13 14 14 13 14 14 14 15 16 16 16 15 16 16 16 17 17 18 18 18 19 19 20 20 20 20 20 20 20 21 22 22 23 23 24 24 24 25 25 26 26 26 26 26 27 27 28 29 31 32 33 33 33
11 11 11 12 12 12 12 12 12 12 12 12 12 12 12 12 14 14 15 14 14 14 15 15 16 16 16 16 16 16 16 17 17 18 18 18 19 19 20 20 20 21 21 21 21 22 23 24 24 24 24 25 25 25 25 25 25 26 26 26 27 27 29 30 32 33 33 33 33
11 11 11 12 12 12 12 13 13 13 13 13 13 13 13 13 14 15 15 14 15 15 15 16 16 16 16 16 16 16 16 16 17 18 18 18 19 19 19 20 21 22 22 23 23 24 24 25 25 25 25 25 25 25 25 25 25 26 27 27 27 28 29 31 32 33 33 33 32
11 12 12 12 12 13 13 13 13 13 13 14 14 14 14 14 15 15 16 16 16 16 16 16 16 16 16 16 16 16 16 17 17 18 18 19 19 19 20 20 20 22 23 24 24 25 25 25 26 26 25 25 25 25 25 26 27 27 28 28 28 29 30 32 32 32 32 32 32
12 12 12 13 13 13 13 13 14 14 14 14 15 15 15 15 15 16 17 17 16 16 16 16 16 16 16 17 17 17 18 18 18 19 19 20 20 20 20 20 21 22 23 24 24 24 25 25 25 26 26 26 26 26 27 28 28 28 28 28 29 30 31 32 32 31 31 31 31
13 13 13 13 13 13 14 14 14 15 15 15 16 16 16 16 16 17 17 18 17 17 17 17 17 16 16 17 18 19 20 20 20 20 21 22 22 21 21 21 22 23 23 24 24 24 24 25 25 25 25 26 27 28 29 30 30 29 29 29 30 31 32 32 31 31 30 30 31
14 14 14 14 14 14 15 16 16 16 16 16 16 16 17 17 17 17 18 18 18 18 18 18 18 17 17 17 17 19 20 20 21 21 21 22 22 22 22 22 23 23 23 23 24 24 24 24 24 25 26 27 29 30 31 32 31 30 30 30 31 32 32 32 31 31 30 31 31
15 15 15 14 15 15 16 16 16 16 16 16 17 18 18 18 18 18 19 20 20 19 19 19 19 18 18 17 17 18 19 20 20 21 21 21 21 22 22 22 22 23 23 23 23 24 24 24 24 25 27 29 30 31 32 32 31 31 31 31 31 31 31 31 31 31 31 31 31
15 15 15 15 15 15 16 16 17 17 18 18 18 18 18 18 18 19 20 20 20 20 20 20 20 20 19 18 18 18 19 20 20 20 20 20 20 21 22 22 22 22 22 22 23 23 23 24 25 27 29 31 32 32 31 31 30 29 30 31 31 30 30 30 30 30 30 31 31
15 16 16 16 15 16 16 16 16 17 17 18 18 18 18 18 19 20 20 20 20 20 20 20 20 20 20 20 19 19 19 19 19 19 19 19 20 20 21 22 22 22 22 22 22 23 23 24 26 29 30 32 32 32 31 31 30 30 31 31 30 29 28 29 29 30 30 31 31
16 16 16 16 16 16 17 17 16 16 17 17 18 18 19 19 20 20 20 20 20 20 20 20 20 20 20 20 20 19 18 18 18 18 18 18 18 19 20 21 21 21 21 22 22 22 24 25 28 30 31 32 32 31 31 30 30 30 30 30 29 27 27 28 29 30 30 31 31
17 17 16 16 16 17 17 17 17 17 17 17 18 18 19 19 20 20 20 20 20 20 20 21 21 21 20 21 20 19 18 17 16 16 16 17 17 18 19 20 20 20 20 21 22 24 25 27 29 30 31 32 31 31 30 29 28 28 28 28 26 26 26 28 29 29 30 30 30
17 16 16 16 17 17 18 18 18 17 17 18 18 18 19 19 19 20 20 20 19 20 20 20 20 20 20 20 19 18 17 17 16 16 16 16 17 17 18 19 19 18 18 19 24 26 28 29 30 31 31 31 31 30 30 29 27 26 25 26 25 26 27 28 29 29 29 30 30
16 16 16 16 17 18 18 18 18 18 17 17 18 18 18 19 19 19 19 19 18 19 19 19 19 19 19 18 17 17 16 16 16 16 16 16 16 16 16 17 17 16 18 21 25 27 28 30 31 32 32 31 29 29 29 29 28 26 24 24 25 26 27 28 28 28 29 30 30
16 16 16 16 17 18 18 18 18 17 17 16 17 18 18 19 18 18 18 17 17 17 18 17 16 17 17 16 16 16 16 16 16 17 16 16 16 15 14 15 16 18 20 24 25 27 28 29 30 32 34 32 29 28 28 29 28 26 24 25 26 27 28 28 28 29 29 29 30
15 16 16 16 17 18 18 18 17 17 16 16 17 17 17 18 18 17 16 15 15 16 16 15 15 14 14 13 14 15 16 16 16 16 16 16 14 13 13 13 16 18 21 24 25 27 28 29 29 32 34 34 29 28 28 29 28 25 24 26 27 28 28 29 29 29 29 29 31
15 16 16 17 18 18 18 18 17 16 16 16 16 16 16 17 17 16 15 14 14 14 14 14 13 13 12 12 12 13 14 16 16 16 16 15 14 13 12 13 14 17 21 24 25 26 27 28 29 32 34 34 29 27 27 28 27 26 25 26 27 28 29 29 29 29 30 30 31
16 16 17 18 18 18 18 17 17 16 16 16 15 15 15 16 16 15 14 14 13 14 14 14 13 12 11 11 12 12 14 15 16 16 16 16 15 14 13 13 14 16 20 24 25 26 27 27 29 32 34 34 29 26 25 27 27 26 26 27 28 28 29 29 29 29 30 31 32
16 17 18 18 18 17 17 17 16 16 15 15 15 14 14 14 14 14 13 13 14 14 15 14 13 12 12 11 12 12 13 14 15 16 16 16 17 16 14 12 13 16 20 24 25 26 27 27 29 32 34 33 29 25 24 25 26 26 26 27 28 28 29 29 29 30 31 31 32
17 18 18 17 17 17 17 16 16 15 14 14 13 13 13 13 13 13 13 13 14 14 14 14 13 12 12 12 12 12 13 14 15 16 16 16 16 15 14 13 13 16 20 23 25 26 27 28 30 33 33 31 28 25 24 24 24 25 26 27 28 28 29 29 30 30 31 31 31
17 17 17 17 17 16 16 16 15 14 14 13 12 12 12 12 13 13 13 13 14 14 13 13 13 12 12 11 12 12 13 14 15 16 16 17 16 16 15 15 14 17 21 23 25 26 28 29 31 32 32 31 28 26 24 23 22 23 25 26 27 28 29 29 30 31 31 29 29
16 16 16 16 16 16 15 15 14 13 12 12 11 11 12 12 13 13 13 14 14 13 13 13 12 12 11 11 12 13 14 16 15 15 15 15 16 16 16 16 15 18 22 23 25 26 28 30 32 32 32 31 28 27 25 22 21 22 24 25 27 28 28 29 30 31 30 28 28
16 16 16 16 16 15 14 13 13 12 11 11 11 11 11 12 13 13 14 15 15 14 12 12 12 11 11 11 12 13 14 16 15 14 14 15 15 16 16 16 16 19 22 23 24 26 29 32 32 33 32 31 29 27 24 20 20 21 24 25 26 27 28 29 30 31 30 28 27
15 15 15 15 14 14 13 12 12 11 11 11 11 11 12 13 13 14 15 16 15 13 12 11 11 11 10 10 11 13 15 15 14 14 15 15 15 16 16 17 17 19 21 22 24 26 29 33 33 33 32 30 28 25 22 19 20 21 23 24 25 25 26 28 30 31 31 29 28
14 14 14 14 13 13 12 12 11 11 11 11 11 12 13 13 14 14 15 15 13 12 11 11 10 10 10 10 11 12 14 14 14 14 15 16 15 16 16 18 16 18 20 22 24 26 29 33 33 33 31 28 26 23 20 18 20 21 22 23 24 24 25 26 29 29 30 30 30
14 14 13 13 12 12 11 11 11 11 11 11 11 12 13 14 14 14 15 15 13 11 11 10 10 10 10 11 11 11 13 14 14 14 14 14 15 16 17 18 17 17 19 22 24 26 30 33 32 32 30 25 23 20 18 18 19 20 21 22 22 23 24 24 25 26 26 29 32
12 12 12 12 12 11 11 11 11 10 11 11 12 13 13 14 13 13 14 14 12 11 10 9 9 10 11 12 12 11 12 14 14 15 14 14 15 17 19 19 17 17 19 22 24 27 30 32 31 31 30 24 20 18 17 17 18 20 21 22 22 22 22 22 22 22 23 25 29
11 11 11 11 11 11 11 11 10 10 11 12 12 13 13 13 13 13 12 12 11 11 10 9 10 10 11 14 13 12 12 13 14 15 15 15 16 19 21 19 16 16 18 21 25 28 30 31 30 31 30 24 20 18 18 17 18 19 20 21 21 21 21 21 20 21 22 23 26
11 11 11 11 11 11 11 10 10 11 12 13 13 13 13 13 12 11 11 11 11 10 10 10 10 11 12 15 15 14 13 14 16 16 16 16 16 18 20 18 16 16 16 20 25 29 30 29 29 31 31 25 20 18 18 17 18 19 20 21 21 21 21 20 20 21 21 22 23